Location: Isola Pescaroli
(45.0500°N, 10.1667°E)
Time: 02:52:41
(UTC+00:00)

Cosmos 2333 Rocket - Pass Details

Date: 03 March 2021
Orbit: 837 x 864 km, 70.8° (Epoch: 20 April)

Event Time Altitude Azimuth Distance (km) Brightness Sun altitude
Rises 20:31:10 0° 238° (WSW) 3,394 5.7 -35.2°
Reaches altitude 10° 20:33:55 10° 249° (WSW) 2,467 5.0 -35.6°
Maximum altitude 20:38:50 29° 309° (NW) 1,504 3.9 -36.3°
Drops below altitude 10° 20:43:47 10° 9° (N) 2,495 4.9 -37.1°
Sets 20:46:36 0° 20° (NNE) 3,439 5.5 -37.5°
